#timestamp,LO_Frequency,Hit,StdDev 
1556647215.7,286047003.7,N
1556647235.5,286047002.0,N
1556647255.3,286047002.8,N
1556647275.2,286047000.1,N
1556647295.0,286047000.3,N
1556647295.9,286047000.3,N
1556647315.7,286047002.4,N
1556647335.6,286047002.8,N
1556647355.4,286047000.4,N
1556647375.3,286047002.8,N
1556647395.1,286047000.2,N
1556647396.0,286047000.2,N
1556647415.8,286046998.6,N
1556647435.7,286047001.1,N
1556647455.5,286047000.1,N
1556647475.3,286047002.7,N
1556647495.2,286047000.4,N
1556647515.0,286047000.5,N
1556647515.9,286047000.5,N
1556647535.8,286047002.7,N
1556647555.6,286047004.3,Y
1556647575.4,286047002.6,P
1556647595.3,286047002.3,P
1556647615.1,286047001.7,N
1556647635.8,286047002.5,Y
1556647655.7,286046999.2,P
1556647675.5,286046997.1,N
1556647695.4,286046998.9,N
1556647715.2,286046999.6,N
1556647735.0,286046997.7,N
1556647735.9,286046997.7,N
1556647755.8,286046997.2,N
1556647775.6,286046997.6,N
1556647795.4,286046997.0,N
1556647815.3,286046996.8,N
1556647835.1,286046998.6,N
1556647855.9,286046999.5,N
1556647875.7,286046998.4,N
1556647895.5,286047001.2,N
1556647915.4,286047001.2,N
1556647935.2,286046998.1,N
1556647955.0,286046998.4,N
1556647955.9,286046998.4,N
1556647975.8,286046999.0,N
1556647995.6,286046999.0,N
1556648015.5,286047000.8,N
1556648035.3,286046998.5,N
1556648055.1,286046998.7,N
1556648075.9,286046998.8,N
1556648095.7,286046999.3,N
1556648115.5,286047001.1,N
1556648135.4,286046999.9,N
1556648155.2,286047002.1,N
1556648175.1,286047000.1,N
1556648176.0,286047000.1,N
1556648195.8,286047000.0,N
1556648215.6,286046998.7,N
1556648235.5,286047001.1,N
1556648255.3,286047000.9,N
1556648275.1,286047004.4,Y
1556648295.9,286047001.9,P
1556648315.7,286047000.1,N
1556648335.6,286046999.9,N
1556648355.4,286047002.7,N
1556648375.2,286046999.8,N
1556648395.1,286047000.3,N
1556648396.0,286047000.3,N
1556648415.8,286046998.6,N
1556648435.6,286047001.0,N
1556648455.5,286046998.1,N
1556648475.3,286046999.4,N
1556648495.2,286046998.5,N
1556648515.9,286046998.1,N
1556648535.7,286047001.1,N
1556648555.6,286047000.7,N
1556648575.4,286047002.2,N
1556648595.2,286047001.7,N
1556648615.1,286047000.0,N
1556648616.0,286047000.0,N
1556648635.8,286047000.1,N
1556648655.7,286047000.1,N
1556648675.5,286046998.7,N
1556648695.3,286046999.7,N
1556648715.2,286047002.8,N
1556648735.9,286047002.4,N
1556648755.7,286047002.6,N
1556648775.6,286047001.8,N
1556648795.4,286047001.9,N
1556648815.2,286047002.7,N
1556648835.1,286047002.7,N
1556648836.0,286047002.7,N
1556648855.8,286047001.6,N
1556648875.7,286047003.9,N
1556648895.5,286047002.8,N
1556648915.3,286047000.6,N
1556648935.2,286047001.0,N
1556648955.0,286046998.5,N
1556648955.9,286046998.5,N
1556648975.7,286046998.1,N
1556648995.6,286046999.8,N
1556649015.4,286047002.1,N
1556649035.3,286047003.8,N
1556649055.1,286047002.1,N
1556649056.0,286047002.1,N
1556649075.8,286047000.4,N
1556649095.7,286047001.6,N
1556649115.5,286047004.1,N
1556649135.3,286047004.0,N
1556649155.2,286047001.3,N
1556649175.0,286047004.2,N
1556649175.9,286047004.2,N
1556649195.8,286047003.6,N
1556649215.6,286047004.4,N
1556649235.4,286047002.5,N
1556649255.3,286047000.5,N
1556649275.1,286047002.4,N
1556649295.8,286047001.3,N
1556649315.7,286047002.0,N
1556649335.5,286047004.1,N
1556649355.4,286047003.4,N
1556649375.2,286047003.7,N
1556649395.0,286047002.9,N
1556649395.9,286047002.9,N
1556649415.8,286047005.9,Y
1556649435.6,286047003.9,P
1556649455.5,286047002.9,P
1556649475.3,286047005.7,P
1556649495.1,286047004.7,Y
1556649515.9,286046999.7,P
1556649535.7,286047000.1,N
1556649555.5,286046998.1,N
1556649575.4,286047001.1,N
1556649595.2,286046998.3,N
1556649615.1,286046996.9,N
1556649616.0,286046996.9,N
1556649635.8,286046998.8,N
1556649655.6,286046999.3,N
1556649675.5,286046998.7,N
1556649695.3,286046997.1,N
1556649715.1,286046995.0,N
1556649735.9,286046995.8,N
1556649755.7,286046998.0,N
1556649775.6,286046995.6,N
1556649795.4,286046997.4,N
1556649815.2,286046998.0,N
1556649835.1,286046997.9,N
1556649836.0,286046997.9,N
1556649855.8,286046994.9,N
1556649875.6,286046996.7,N
1556649895.5,286046996.7,N
1556649915.3,286046997.6,N
1556649935.2,286046994.9,N
1556649955.9,286046995.1,N
1556649975.7,286046996.3,N
1556649995.6,286046994.1,N
1556650015.4,286046994.1,N
1556650035.2,286046994.2,N
1556650055.1,286046994.0,N
1556650056.0,286046994.0,Y
1556650075.8,286046994.9,P
1556650095.7,286046996.8,P
1556650115.5,286046996.6,P
1556650135.3,286046995.3,Y
1556650155.2,286047000.6,P
1556650175.0,286047000.5,N
1556650175.9,286047000.5,N
1556650195.8,286047000.1,N
1556650215.6,286047001.0,N
1556650235.4,286047001.0,N
1556650255.3,286046999.8,N
1556650275.1,286047000.8,N
1556650295.8,286047000.6,N
1556650315.7,286047000.7,N
1556650335.5,286046998.8,N
1556650355.4,286046998.2,N
1556650375.2,286047001.0,N
1556650395.0,286046996.8,N
1556650395.9,286046996.8,N
1556650415.8,286046996.8,N
1556650435.6,286046997.7,N
1556650455.4,286046997.7,N
1556650475.3,286046999.5,N
1556650495.1,286046996.9,N
1556650515.9,286046999.6,N
1556650535.7,286046998.7,N
1556650555.5,286046998.5,N
1556650575.4,286046999.3,N
1556650595.2,286046998.3,N
1556650615.0,286046997.1,N
1556650615.9,286046997.1,N
1556650635.8,286046997.5,N
1556650655.6,286046996.8,N
1556650675.5,286046999.5,N
1556650695.3,286046997.2,N
1556650715.1,286046996.6,N
1556650735.9,286046996.9,N
1556650755.7,286046997.8,N
1556650775.5,286046996.6,N
1556650795.4,286046997.1,N
